,,,PA_Meas_PMT16A,,PR_Meas_QMR101_102,,RH_Meas_QMH101,,SR_Meas_QMS101,,TA_Meas_QMH101,,GenWind,,GenWind,
date,time,status,PA,status,PR,status,RH,status,SR,status,TA,status,DirAvg,status,SpdAvg,
2014-09-26, 00:00:04,VALID,1011.69,VALID,0,VALID,97.9909,VALID,0,VALID,23.6763,VALID,329,VALID,0,
2014-09-26, 00:01:04,VALID,1011.65,VALID,0,VALID,98.0519,VALID,0,VALID,23.655,VALID,329,VALID,0,
2014-09-26, 00:02:04,VALID,1011.61,VALID,0,VALID,98.0367,VALID,0,VALID,23.6763,VALID,329,VALID,0,
2014-09-26, 00:03:04,VALID,1011.59,VALID,0,VALID,98.2502,VALID,0,VALID,23.655,VALID,329,VALID,0,
2014-09-26, 00:04:04,VALID,1011.53,VALID,0,VALID,98.8908,VALID,0,VALID,23.6745,VALID,329,VALID,0,
2014-09-26, 00:05:04,VALID,1011.51,VALID,0,VALID,99.15,VALID,0,VALID,23.694,VALID,329,VALID,0,
2014-09-26, 00:06:04,VALID,1011.47,VALID,0,VALID,99.4246,VALID,0,VALID,23.694,VALID,329,VALID,0,
2014-09-26, 00:07:04,VALID,1011.46,VALID,0,VALID,99.5008,VALID,0,VALID,23.7135,VALID,329,VALID,0,
2014-09-26, 00:08:04,VALID,1011.44,VALID,0,VALID,99.7296,VALID,0,VALID,23.733,VALID,329,VALID,0,
2014-09-26, 00:09:04,VALID,1011.44,VALID,0,VALID,99.6381,VALID,0,VALID,23.7525,VALID,329,VALID,0,
2014-09-26, 00:10:04,VALID,1011.47,VALID,0,VALID,99.5237,VALID,0,VALID,23.772,VALID,329,VALID,0,
2014-09-26, 00:11:04,VALID,1011.44,VALID,0,VALID,99.3788,VALID,0,VALID,23.772,VALID,329,VALID,0,
2014-09-26, 00:12:04,VALID,1011.43,VALID,0,VALID,99.2339,VALID,0,VALID,23.772,VALID,329,VALID,0,
2014-09-26, 00:13:04,VALID,1011.43,VALID,0,VALID,98.9899,VALID,0,VALID,23.7914,VALID,329,VALID,0,
2014-09-26, 00:14:04,VALID,1011.43,VALID,0,VALID,98.7611,VALID,0,VALID,23.772,VALID,329,VALID,0,
2014-09-26, 00:15:04,VALID,1011.46,VALID,0,VALID,98.6849,VALID,0,VALID,23.7932,VALID,329,VALID,0,
2014-09-26, 00:16:04,VALID,1011.44,VALID,0,VALID,98.8221,VALID,0,VALID,23.772,VALID,329,VALID,0,
2014-09-26, 00:17:04,VALID,1011.42,VALID,0,VALID,99.1043,VALID,0,VALID,23.772,VALID,329,VALID,0,
2014-09-26, 00:18:04,VALID,1011.41,VALID,0,VALID,99.3636,VALID,0,VALID,23.7525,VALID,329,VALID,0,
2014-09-26, 00:19:04,VALID,1011.38,VALID,0,VALID,99.6838,VALID,0,VALID,23.7525,VALID,329,VALID,0,
2014-09-26, 00:20:04,VALID,1011.37,VALID,0,VALID,99.7067,VALID,0,VALID,23.733,VALID,329,VALID,0,
2014-09-26, 00:21:04,VALID,1011.37,VALID,0,VALID,99.7754,VALID,0,VALID,23.7525,VALID,329,VALID,0,
2014-09-26, 00:22:04,VALID,1011.37,VALID,0,VALID,100.05,VALID,0,VALID,23.733,VALID,329,VALID,0,
2014-09-26, 00:23:04,VALID,1011.32,VALID,0,VALID,99.9965,VALID,0,VALID,23.733,VALID,329,VALID,0,
2014-09-26, 00:24:04,VALID,1011.34,VALID,0,VALID,99.8669,VALID,0,VALID,23.7135,VALID,329,VALID,0,
2014-09-26, 00:25:04,VALID,1011.31,VALID,0,VALID,99.7296,VALID,0,VALID,23.7135,VALID,329,VALID,0,
2014-09-26, 00:26:04,VALID,1011.3,VALID,0,VALID,99.6381,VALID,0,VALID,23.7135,VALID,329,VALID,0,
2014-09-26, 00:27:04,VALID,1011.3,VALID,0,VALID,99.4627,VALID,0,VALID,23.6745,VALID,329,VALID,0,
2014-09-26, 00:28:04,VALID,1011.29,VALID,0,VALID,99.7906,VALID,0,VALID,23.6745,VALID,329,VALID,0,
2014-09-26, 00:29:04,VALID,1011.29,VALID,0,VALID,100.279,VALID,0,VALID,23.6745,VALID,329,VALID,0,
2014-09-26, 00:30:04,VALID,1011.29,VALID,0,VALID,100.469,VALID,0,VALID,23.6745,VALID,329,VALID,0,
2014-09-26, 00:31:04,VALID,1011.34,VALID,0,VALID,100.645,VALID,0,VALID,23.6356,VALID,329,VALID,0,
2014-09-26, 00:32:04,VALID,1011.32,VALID,0,VALID,100.973,VALID,0,VALID,23.6356,VALID,329,VALID,0,
2014-09-26, 00:33:04,VALID,1011.34,VALID,0,VALID,101.423,VALID,0,VALID,23.6161,VALID,329,VALID,0,
2014-09-26, 00:34:04,VALID,1011.35,VALID,0,VALID,101.926,VALID,0,VALID,23.5966,VALID,329,VALID,0,
2014-09-26, 00:35:04,VALID,1011.33,VALID,0,VALID,102.345,VALID,0,VALID,23.5966,VALID,329,VALID,0,
2014-09-26, 00:36:04,VALID,1011.33,VALID,0,VALID,102.704,VALID,0,VALID,23.5771,VALID,329,VALID,0,
2014-09-26, 00:37:04,VALID,1011.3,VALID,0,VALID,103.093,VALID,0,VALID,23.5576,VALID,329,VALID,0,
2014-09-26, 00:38:04,VALID,1011.31,VALID,0,VALID,103.52,VALID,0,VALID,23.5576,VALID,329,VALID,0,
2014-09-26, 00:39:04,VALID,1011.29,VALID,0,VALID,104,VALID,0,VALID,23.5381,VALID,329,VALID,0,
2014-09-26, 00:40:04,VALID,1011.26,VALID,0,VALID,104,VALID,0,VALID,23.5381,VALID,329,VALID,0,
2014-09-26, 00:41:04,VALID,1011.25,VALID,0,VALID,104,VALID,0,VALID,23.5381,VALID,329,VALID,0,
2014-09-26, 00:42:04,VALID,1011.26,VALID,0,VALID,104,VALID,0,VALID,23.5576,VALID,329,VALID,0,
2014-09-26, 00:43:04,VALID,1011.28,VALID,0,VALID,104,VALID,0,VALID,23.5576,VALID,329,VALID,0,
2014-09-26, 00:44:04,VALID,1011.27,VALID,0,VALID,104,VALID,0,VALID,23.5576,VALID,329,VALID,0,
2014-09-26, 00:45:04,VALID,1011.31,VALID,0,VALID,104,VALID,0,VALID,23.5984,VALID,329,VALID,0,
2014-09-26, 00:46:04,VALID,1011.31,VALID,0,VALID,104,VALID,0,VALID,23.5771,VALID,329,VALID,0,
2014-09-26, 00:47:04,VALID,1011.28,VALID,0,VALID,104,VALID,0,VALID,23.6179,VALID,329,VALID,0,
2014-09-26, 00:48:04,VALID,1011.3,VALID,0,VALID,104,VALID,0,VALID,23.5966,VALID,329,VALID,0,
2014-09-26, 00:49:04,VALID,1011.27,VALID,0,VALID,104,VALID,0,VALID,23.6179,VALID,329,VALID,0,
2014-09-26, 00:50:04,VALID,1011.27,VALID,0,VALID,104,VALID,0,VALID,23.6161,VALID,329,VALID,0,
2014-09-26, 00:51:04,VALID,1011.26,VALID,0,VALID,104,VALID,0,VALID,23.5966,VALID,330,VALID,0,
2014-09-26, 00:52:04,VALID,1011.28,VALID,0,VALID,104,VALID,0,VALID,23.6161,VALID,330,VALID,0,
2014-09-26, 00:53:04,VALID,1011.27,VALID,0,VALID,104,VALID,0,VALID,23.6161,VALID,330,VALID,0,
2014-09-26, 00:54:04,VALID,1011.27,VALID,0,VALID,104,VALID,0,VALID,23.6373,VALID,330,VALID,0,
2014-09-26, 00:55:04,VALID,1011.28,VALID,0,VALID,104,VALID,0,VALID,23.6373,VALID,330,VALID,0,
2014-09-26, 00:56:04,VALID,1011.27,VALID,0,VALID,104,VALID,0,VALID,23.6373,VALID,330,VALID,0,
2014-09-26, 00:57:04,VALID,1011.23,VALID,0,VALID,104,VALID,0,VALID,23.6161,VALID,330,VALID,0,
2014-09-26, 00:58:04,VALID,1011.22,VALID,0,VALID,104,VALID,0.112112,VALID,23.6161,VALID,330,VALID,0,
2014-09-26, 00:59:04,VALID,1011.22,VALID,0,VALID,104,VALID,0,VALID,23.6143,VALID,330,VALID,0,
2014-09-26, 01:00:04,VALID,1011.15,VALID,0,VALID,104,VALID,0,VALID,23.6161,VALID,330,VALID,0,
2014-09-26, 01:01:04,VALID,1011.12,VALID,0,VALID,104,VALID,0,VALID,23.6161,VALID,330,VALID,0,
2014-09-26, 01:02:04,VALID,1011.12,VALID,0,VALID,104,VALID,0,VALID,23.5966,VALID,330,VALID,0,
2014-09-26, 01:03:04,VALID,1011.1,VALID,0,VALID,104,VALID,0,VALID,23.5966,VALID,330,VALID,0,
2014-09-26, 01:04:04,VALID,1011.07,VALID,0,VALID,104,VALID,0,VALID,23.5771,VALID,330,VALID,0,
2014-09-26, 01:05:04,VALID,1011.06,VALID,0,VALID,104,VALID,0,VALID,23.5576,VALID,330,VALID,0,
2014-09-26, 01:06:04,VALID,1011.06,VALID,0,VALID,104,VALID,0,VALID,23.5576,VALID,330,VALID,0,
2014-09-26, 01:07:04,VALID,1011.04,VALID,0,VALID,104,VALID,0,VALID,23.5576,VALID,330,VALID,0,
2014-09-26, 01:08:04,VALID,1011.01,VALID,0,VALID,104,VALID,0,VALID,23.5381,VALID,330,VALID,0,
2014-09-26, 01:09:04,VALID,1010.99,VALID,0,VALID,104,VALID,0,VALID,23.5381,VALID,330,VALID,0,
2014-09-26, 01:10:04,VALID,1010.95,VALID,0,VALID,104,VALID,0,VALID,23.5381,VALID,330,VALID,0,
2014-09-26, 01:11:04,VALID,1010.95,VALID,0,VALID,104,VALID,0,VALID,23.5186,VALID,330,VALID,0,
2014-09-26, 01:12:04,VALID,1010.95,VALID,0,VALID,104,VALID,0.112112,VALID,23.5381,VALID,330,VALID,0,
2014-09-26, 01:13:04,VALID,1010.98,VALID,0,VALID,104,VALID,0,VALID,23.5186,VALID,330,VALID,0,
2014-09-26, 01:14:04,VALID,1010.96,VALID,0,VALID,104,VALID,0,VALID,23.4992,VALID,330,VALID,0,
2014-09-26, 01:15:04,VALID,1010.99,VALID,0,VALID,104,VALID,0,VALID,23.4797,VALID,330,VALID,0,
2014-09-26, 01:16:04,VALID,1011.01,VALID,0,VALID,104,VALID,0,VALID,23.4389,VALID,330,VALID,0,
2014-09-26, 01:17:04,VALID,1011.02,VALID,0,VALID,104,VALID,0,VALID,23.4407,VALID,330,VALID,0,
2014-09-26, 01:18:04,VALID,1011.03,VALID,0,VALID,104,VALID,0,VALID,23.4212,VALID,330,VALID,0,
2014-09-26, 01:19:04,VALID,1011.01,VALID,0,VALID,104,VALID,0,VALID,23.4017,VALID,330,VALID,0,
2014-09-26, 01:20:04,VALID,1011.03,VALID,0,VALID,104,VALID,0,VALID,23.3805,VALID,330,VALID,0,
2014-09-26, 01:21:04,VALID,1011,VALID,0,INVALID,109.979,VALID,0,VALID,23.3823,VALID,330,VALID,0,
2014-09-26, 01:22:04,VALID,1011.04,VALID,0,INVALID,110.726,VALID,0,VALID,23.3823,VALID,330,VALID,0,
2014-09-26, 01:23:04,VALID,1011.01,VALID,0,INVALID,112.548,VALID,0,VALID,23.4017,VALID,330,VALID,0,
2014-09-26, 01:24:04,VALID,1011.03,VALID,0,INVALID,114.318,VALID,0,VALID,23.4017,VALID,330,VALID,0,
2014-09-26, 01:25:04,VALID,1011.06,VALID,0,INVALID,115.95,VALID,0,VALID,23.4017,VALID,330,VALID,0,
2014-09-26, 01:26:04,VALID,1011.06,VALID,0,INVALID,117.993,VALID,0.112112,VALID,23.3805,VALID,330,VALID,0,
2014-09-26, 01:27:04,VALID,1011.05,VALID,0,INVALID,119.45,VALID,0,VALID,23.4212,VALID,330,VALID,0,
2014-09-26, 01:28:04,VALID,1011.07,VALID,0,INVALID,121.158,VALID,0,VALID,23.4,VALID,330,VALID,0,
2014-09-26, 01:29:04,VALID,1011.06,VALID,0,INVALID,122.614,VALID,0,VALID,23.4407,VALID,330,VALID,0,
2014-09-26, 01:30:04,VALID,1011.07,VALID,0,INVALID,123.423,VALID,0,VALID,23.4407,VALID,330,VALID,0,
2014-09-26, 01:31:04,VALID,1011.07,VALID,0,INVALID,125.253,VALID,0,VALID,23.4602,VALID,330,VALID,0,
2014-09-26, 01:32:04,VALID,1011.08,VALID,0,INVALID,127.053,VALID,0,VALID,23.4602,VALID,330,VALID,0,
2014-09-26, 01:33:04,VALID,1011.12,VALID,0,INVALID,127.586,VALID,0,VALID,23.4797,VALID,330,VALID,0,
2014-09-26, 01:34:04,VALID,1011.11,VALID,0,INVALID,128.151,VALID,0,VALID,23.4992,VALID,330,VALID,0,
2014-09-26, 01:35:04,VALID,1011.09,VALID,0,INVALID,128.044,VALID,0,VALID,23.4992,VALID,330,VALID,0,
2014-09-26, 01:36:04,VALID,1011.1,VALID,0,INVALID,127.274,VALID,0,VALID,23.4974,VALID,330,VALID,0,
2014-09-26, 01:37:04,VALID,1011.13,VALID,0,INVALID,127.198,VALID,0,VALID,23.5186,VALID,330,VALID,0,
2014-09-26, 01:38:04,VALID,1011.08,VALID,0,INVALID,127.106,VALID,0,VALID,23.5186,VALID,330,VALID,0,
2014-09-26, 01:39:04,VALID,1011.08,VALID,0,INVALID,127.045,VALID,0,VALID,23.5363,VALID,330,VALID,0,
2014-09-26, 01:40:04,VALID,1011.08,VALID,0,INVALID,127.274,VALID,0,VALID,23.5576,VALID,330,VALID,0,
2014-09-26, 01:41:04,VALID,1011.09,VALID,0,INVALID,127.312,VALID,0,VALID,23.5576,VALID,330,VALID,0,
2014-09-26, 01:42:04,VALID,1011.05,VALID,0,INVALID,127.51,VALID,0,VALID,23.5771,VALID,330,VALID,0,
2014-09-26, 01:43:04,VALID,1011.07,VALID,0,INVALID,126.42,VALID,0,VALID,23.5576,VALID,330,VALID,0,
2014-09-26, 01:44:04,VALID,1011.09,VALID,0,INVALID,125.1,VALID,0,VALID,23.5576,VALID,330,VALID,0,
2014-09-26, 01:45:04,VALID,1011.11,VALID,0,INVALID,124.666,VALID,0,VALID,23.5576,VALID,330,VALID,0,
2014-09-26, 01:46:04,VALID,1011.1,VALID,0,INVALID,123.796,VALID,0,VALID,23.5576,VALID,330,VALID,0,
2014-09-26, 01:47:04,VALID,1011.07,VALID,0,INVALID,122.264,VALID,0.112112,VALID,23.5576,VALID,330,VALID,0,
2014-09-26, 01:48:04,VALID,1011.03,VALID,0,INVALID,121.188,VALID,0,VALID,23.5381,VALID,330,VALID,0,
2014-09-26, 01:49:04,VALID,1011.05,VALID,0,INVALID,120.159,VALID,0.112112,VALID,23.5576,VALID,330,VALID,0,
2014-09-26, 01:50:04,VALID,1011.02,VALID,0,INVALID,119.999,VALID,0,VALID,23.5789,VALID,330,VALID,0,
2014-09-26, 01:51:04,VALID,1011,VALID,0,INVALID,120.228,VALID,0,VALID,23.5771,VALID,330,VALID,0,
2014-09-26, 01:52:04,VALID,1010.97,VALID,0,INVALID,120.502,VALID,0.112112,VALID,23.5966,VALID,330,VALID,0,
2014-09-26, 01:53:04,VALID,1010.97,VALID,0,INVALID,119.976,VALID,0,VALID,23.5966,VALID,330,VALID,0,
2014-09-26, 01:54:04,VALID,1010.98,VALID,0,INVALID,118.725,VALID,0,VALID,23.5966,VALID,330,VALID,0,
2014-09-26, 01:55:04,VALID,1010.98,VALID,0,INVALID,118.458,VALID,0.112112,VALID,23.6161,VALID,330,VALID,0,
2014-09-26, 01:56:04,VALID,1010.99,VALID,0,INVALID,117.33,VALID,0,VALID,23.5966,VALID,330,VALID,0,
2014-09-26, 01:57:04,VALID,1011.03,VALID,0,INVALID,116.766,VALID,0,VALID,23.5966,VALID,330,VALID,0,
2014-09-26, 01:58:04,VALID,1011.01,VALID,0,INVALID,116.895,VALID,0,VALID,23.5966,VALID,330,VALID,0,
2014-09-26, 01:59:04,VALID,1011.01,VALID,0,INVALID,116.849,VALID,0,VALID,23.5966,VALID,330,VALID,0,
2014-09-26, 02:00:04,VALID,1011.06,VALID,0,INVALID,116.201,VALID,0,VALID,23.5966,VALID,330,VALID,0,
2014-09-26, 02:01:04,VALID,1011.08,VALID,0,INVALID,116.834,VALID,0,VALID,23.5948,VALID,330,VALID,0,
2014-09-26, 02:02:04,VALID,1011.08,VALID,0,INVALID,117.101,VALID,0.112112,VALID,23.5948,VALID,330,VALID,0,
2014-09-26, 02:03:04,VALID,1011.09,VALID,0,INVALID,117.01,VALID,0,VALID,23.5966,VALID,330,VALID,0,
2014-09-26, 02:04:04,VALID,1011.11,VALID,0,INVALID,117.414,VALID,0.112112,VALID,23.5753,VALID,330,VALID,0,
2014-09-26, 02:05:04,VALID,1011.09,VALID,0,INVALID,117.963,VALID,0,VALID,23.5771,VALID,330,VALID,0,
2014-09-26, 02:06:04,VALID,1011.12,VALID,0,INVALID,118.192,VALID,0,VALID,23.5771,VALID,330,VALID,0,
2014-09-26, 02:07:04,VALID,1011.07,VALID,0,INVALID,118.687,VALID,0,VALID,23.5363,VALID,330,VALID,0,
2014-09-26, 02:08:04,VALID,1011.1,VALID,0,INVALID,119.564,VALID,0,VALID,23.5576,VALID,330,VALID,0,
2014-09-26, 02:09:04,VALID,1011.09,VALID,0,INVALID,120.868,VALID,0,VALID,23.5576,VALID,330,VALID,0,
2014-09-26, 02:10:04,VALID,1011.08,VALID,0,INVALID,121.921,VALID,0,VALID,23.5576,VALID,330,VALID,0,
2014-09-26, 02:11:04,VALID,1011.05,VALID,0,INVALID,122.18,VALID,0,VALID,23.5576,VALID,330,VALID,0,
2014-09-26, 02:12:04,VALID,1011.06,VALID,0,INVALID,122.073,VALID,0,VALID,23.5381,VALID,330,VALID,0,
2014-09-26, 02:13:04,VALID,1011.05,VALID,0,INVALID,123.209,VALID,0,VALID,23.5576,VALID,330,VALID,0,
2014-09-26, 02:14:04,VALID,1011.06,VALID,0,INVALID,123.4,VALID,0,VALID,23.5576,VALID,330,VALID,0,
2014-09-26, 02:15:04,VALID,1011.07,VALID,0,INVALID,122.63,VALID,0,VALID,23.5789,VALID,330,VALID,0,
2014-09-26, 02:16:04,VALID,1011.1,VALID,0,INVALID,122.279,VALID,0.112112,VALID,23.5381,VALID,330,VALID,0,
2014-09-26, 02:17:04,VALID,1011.1,VALID,0,INVALID,122.561,VALID,0,VALID,23.5363,VALID,330,VALID,0,
2014-09-26, 02:18:04,VALID,1011.07,VALID,0,INVALID,123.148,VALID,0,VALID,23.5576,VALID,330,VALID,0,
2014-09-26, 02:19:04,VALID,1011.1,VALID,0,INVALID,122.965,VALID,0,VALID,23.5771,VALID,330,VALID,0,
2014-09-26, 02:20:04,VALID,1011.07,VALID,0,INVALID,123.125,VALID,0,VALID,23.5576,VALID,330,VALID,0,
2014-09-26, 02:21:04,VALID,1011.04,VALID,0,INVALID,123.125,VALID,0,VALID,23.5363,VALID,330,VALID,0,
2014-09-26, 02:22:04,VALID,1011.06,VALID,0,INVALID,123.362,VALID,0.112112,VALID,23.5576,VALID,330,VALID,0,
2014-09-26, 02:23:04,VALID,1011.08,VALID,0,INVALID,123.476,VALID,0,VALID,23.5576,VALID,330,VALID,0,
2014-09-26, 02:24:04,VALID,1011.05,VALID,0,INVALID,123.545,VALID,0,VALID,23.5381,VALID,330,VALID,0,
2014-09-26, 02:25:04,VALID,1011.05,VALID,0,INVALID,124.49,VALID,0,VALID,23.5381,VALID,330,VALID,0,
2014-09-26, 02:26:04,VALID,1011.05,VALID,0,INVALID,124.803,VALID,0,VALID,23.5169,VALID,330,VALID,0,
2014-09-26, 02:27:04,VALID,1011.04,VALID,0,INVALID,124.429,VALID,0,VALID,23.4974,VALID,330,VALID,0,
2014-09-26, 02:28:04,VALID,1011,VALID,0,INVALID,123.964,VALID,0,VALID,23.4974,VALID,330,VALID,0,
2014-09-26, 02:29:04,VALID,1010.98,VALID,0,INVALID,123.835,VALID,0,VALID,23.4992,VALID,330,VALID,0,
2014-09-26, 02:30:04,VALID,1010.98,VALID,0,INVALID,123.606,VALID,0,VALID,23.4992,VALID,330,VALID,0,
2014-09-26, 02:31:04,VALID,1011,VALID,0,INVALID,123.682,VALID,0.112112,VALID,23.4992,VALID,330,VALID,0,
2014-09-26, 02:32:04,VALID,1011,VALID,0,INVALID,124.795,VALID,0.112112,VALID,23.4797,VALID,330,VALID,0,
2014-09-26, 02:33:04,VALID,1010.98,VALID,0,INVALID,125.139,VALID,0,VALID,23.4797,VALID,330,VALID,0,
2014-09-26, 02:34:04,VALID,1010.96,VALID,0,INVALID,125.894,VALID,0.112112,VALID,23.4389,VALID,330,VALID,0,
2014-09-26, 02:35:04,VALID,1010.98,VALID,0,INVALID,126.717,VALID,0,VALID,23.4602,VALID,330,VALID,0,
2014-09-26, 02:36:04,VALID,1010.97,VALID,0,INVALID,126.893,VALID,0,VALID,23.4194,VALID,330,VALID,0,
2014-09-26, 02:37:04,VALID,1010.98,VALID,0,INVALID,127.701,VALID,0.112112,VALID,23.4407,VALID,330,VALID,0,
2014-09-26, 02:38:04,VALID,1010.95,VALID,0,INVALID,129.051,VALID,0,VALID,23.4407,VALID,330,VALID,0,
2014-09-26, 02:39:04,VALID,1010.94,VALID,0,INVALID,129.112,VALID,0,VALID,23.4407,VALID,330,VALID,0,
2014-09-26, 02:40:04,VALID,1010.9,VALID,0,INVALID,129.645,VALID,0,VALID,23.4212,VALID,330,VALID,0,
2014-09-26, 02:41:04,VALID,1010.93,VALID,0,INVALID,130.08,VALID,0,VALID,23.4212,VALID,330,VALID,0,
2014-09-26, 02:42:04,VALID,1010.92,VALID,0,INVALID,130.69,VALID,0,VALID,23.4407,VALID,330,VALID,0,
2014-09-26, 02:43:04,VALID,1010.94,VALID,0,INVALID,130.904,VALID,0,VALID,23.4407,VALID,330,VALID,0,
2014-09-26, 02:44:04,VALID,1010.93,VALID,0,INVALID,131.331,VALID,0,VALID,23.4407,VALID,330,VALID,0,
2014-09-26, 02:45:04,VALID,1010.95,VALID,0,INVALID,131.674,VALID,0,VALID,23.4212,VALID,330,VALID,0,
2014-09-26, 02:46:04,VALID,1010.95,VALID,0,INVALID,131.903,VALID,0,VALID,23.4,VALID,330,VALID,0,
2014-09-26, 02:47:04,VALID,1010.94,VALID,0,INVALID,131.819,VALID,0,VALID,23.4,VALID,330,VALID,0,
2014-09-26, 02:48:04,VALID,1010.91,VALID,0,INVALID,131.796,VALID,0,VALID,23.4017,VALID,330,VALID,0,
2014-09-26, 02:49:04,VALID,1010.89,VALID,0,INVALID,131.834,VALID,0,VALID,23.4017,VALID,330,VALID,0,
2014-09-26, 02:50:04,VALID,1010.86,VALID,0,INVALID,131.887,VALID,0,VALID,23.4017,VALID,330,VALID,0,
2014-09-26, 02:51:04,VALID,1010.84,VALID,0,INVALID,131.971,VALID,0.112112,VALID,23.361,VALID,330,VALID,0,
2014-09-26, 02:52:04,VALID,1010.86,VALID,0,INVALID,132.185,VALID,0,VALID,23.4017,VALID,330,VALID,0,
2014-09-26, 02:53:04,VALID,1010.87,VALID,0,INVALID,132.505,VALID,0,VALID,23.3805,VALID,330,VALID,0,
2014-09-26, 02:54:04,VALID,1010.84,VALID,0,INVALID,132.589,VALID,0.112112,VALID,23.4212,VALID,330,VALID,0,
2014-09-26, 02:55:04,VALID,1010.85,VALID,0,INVALID,132.688,VALID,0,VALID,23.4407,VALID,330,VALID,0,
2014-09-26, 02:56:04,VALID,1010.84,VALID,0,INVALID,132.436,VALID,0,VALID,23.4407,VALID,330,VALID,0,
2014-09-26, 02:57:04,VALID,1010.82,VALID,0,INVALID,132.154,VALID,0,VALID,23.4602,VALID,330,VALID,0,
2014-09-26, 02:58:04,VALID,1010.83,VALID,0,INVALID,131.415,VALID,0,VALID,23.4602,VALID,330,VALID,0,
2014-09-26, 02:59:04,VALID,1010.82,VALID,0,INVALID,131.354,VALID,0,VALID,23.4389,VALID,330,VALID,0,
2014-09-26, 03:00:04,VALID,1010.81,VALID,0,INVALID,131.14,VALID,0,VALID,23.4602,VALID,330,VALID,0,
2014-09-26, 03:01:04,VALID,1010.81,VALID,0,INVALID,130.446,VALID,0,VALID,23.4602,VALID,330,VALID,0,
2014-09-26, 03:02:04,VALID,1010.8,VALID,0,INVALID,129.531,VALID,0,VALID,23.4,VALID,330,VALID,0,
2014-09-26, 03:03:04,VALID,1010.78,VALID,0,INVALID,129.104,VALID,0,VALID,23.4017,VALID,330,VALID,0,
2014-09-26, 03:04:04,VALID,1010.73,VALID,0,INVALID,129.302,VALID,0,VALID,23.3823,VALID,330,VALID,0,
2014-09-26, 03:05:04,VALID,1010.74,VALID,0,INVALID,129.706,VALID,0,VALID,23.3823,VALID,330,VALID,0,
2014-09-26, 03:06:04,VALID,1010.77,VALID,0,INVALID,130.126,VALID,0,VALID,23.3628,VALID,330,VALID,0,
2014-09-26, 03:07:04,VALID,1010.76,VALID,0,INVALID,130.4,VALID,0,VALID,23.3628,VALID,330,VALID,0,
2014-09-26, 03:08:04,VALID,1010.78,VALID,0,INVALID,130.637,VALID,0,VALID,23.322,VALID,330,VALID,0,
2014-09-26, 03:09:04,VALID,1010.81,VALID,0,INVALID,130.934,VALID,0.112112,VALID,23.3433,VALID,330,VALID,0,
2014-09-26, 03:10:04,VALID,1010.81,VALID,0,INVALID,131.163,VALID,0,VALID,23.322,VALID,330,VALID,0,
2014-09-26, 03:11:04,VALID,1010.81,VALID,0,INVALID,131.376,VALID,0,VALID,23.3238,VALID,330,VALID,0,
2014-09-26, 03:12:04,VALID,1010.85,VALID,0,INVALID,131.483,VALID,0,VALID,23.2831,VALID,330,VALID,0,
2014-09-26, 03:13:04,VALID,1010.84,VALID,0,INVALID,131.521,VALID,0,VALID,23.3043,VALID,330,VALID,0,
2014-09-26, 03:14:04,VALID,1010.83,VALID,0,INVALID,131.659,VALID,0,VALID,23.2848,VALID,330,VALID,0,
2014-09-26, 03:15:04,VALID,1010.82,VALID,0,INVALID,131.91,VALID,0,VALID,23.2654,VALID,330,VALID,0,
2014-09-26, 03:16:04,VALID,1010.83,VALID,0,INVALID,132.292,VALID,0,VALID,23.2441,VALID,330,VALID,0,
2014-09-26, 03:17:04,VALID,1010.84,VALID,0,INVALID,132.429,VALID,0,VALID,23.2264,VALID,330,VALID,0,
2014-09-26, 03:18:04,VALID,1010.86,VALID,0,INVALID,132.536,VALID,0,VALID,23.2069,VALID,357,VALID,0,
2014-09-26, 03:19:04,VALID,1010.86,VALID,0,INVALID,132.551,VALID,0,VALID,23.1874,VALID,30,VALID,0,
2014-09-26, 03:20:04,VALID,1010.92,VALID,0,INVALID,132.345,VALID,0,VALID,23.1679,VALID,30,VALID,0,
2014-09-26, 03:21:04,VALID,1010.93,VALID,0,INVALID,132.475,VALID,0,VALID,23.1679,VALID,30,VALID,0,
2014-09-26, 03:22:04,VALID,1010.93,VALID,0,INVALID,132.619,VALID,0,VALID,23.129,VALID,30,VALID,0,
2014-09-26, 03:23:04,VALID,1010.95,VALID,0,INVALID,132.688,VALID,0,VALID,23.129,VALID,30,VALID,0,
2014-09-26, 03:24:04,VALID,1010.91,VALID,0,INVALID,132.97,VALID,0,VALID,23.1095,VALID,30,VALID,0,
2014-09-26, 03:25:04,VALID,1010.93,VALID,0,INVALID,133.336,VALID,0,VALID,23.0883,VALID,30,VALID,0,
2014-09-26, 03:26:04,VALID,1010.89,VALID,0,INVALID,133.733,VALID,0.112112,VALID,23.09,VALID,30,VALID,0,
2014-09-26, 03:27:04,VALID,1010.91,VALID,0,INVALID,134.114,VALID,0,VALID,23.09,VALID,30,VALID,0,
2014-09-26, 03:28:04,VALID,1010.89,VALID,0,INVALID,134.404,VALID,0,VALID,23.0705,VALID,30,VALID,0,
2014-09-26, 03:29:04,VALID,1010.94,VALID,0,INVALID,134.526,VALID,0,VALID,23.0493,VALID,30,VALID,0,
2014-09-26, 03:30:04,VALID,1010.95,VALID,0,INVALID,134.732,VALID,0,VALID,23.0511,VALID,30,VALID,0,
2014-09-26, 03:31:04,VALID,1011.01,VALID,0,INVALID,134.831,VALID,0,VALID,23.0511,VALID,30,VALID,0,
2014-09-26, 03:32:04,VALID,1011.03,VALID,0,INVALID,134.884,VALID,0,VALID,23.0103,VALID,30,VALID,0,
2014-09-26, 03:33:04,VALID,1011.04,VALID,0,INVALID,134.907,VALID,0,VALID,23.0316,VALID,30,VALID,0,
2014-09-26, 03:34:04,VALID,1011.06,VALID,0,INVALID,134.877,VALID,0,VALID,23.0103,VALID,30,VALID,0,
2014-09-26, 03:35:04,VALID,1011.08,VALID,0,INVALID,134.892,VALID,0,VALID,23.0316,VALID,30,VALID,0,
2014-09-26, 03:36:04,VALID,1011.07,VALID,0,INVALID,134.9,VALID,0,VALID,23.0121,VALID,30,VALID,0,
2014-09-26, 03:37:04,VALID,1011.07,VALID,0,INVALID,134.846,VALID,0,VALID,23.0121,VALID,30,VALID,0,
2014-09-26, 03:38:04,VALID,1011.05,VALID,0,INVALID,134.854,VALID,0,VALID,23.0121,VALID,30,VALID,0,
2014-09-26, 03:39:04,VALID,1011.08,VALID,0,INVALID,134.861,VALID,0,VALID,23.0121,VALID,30,VALID,0,
2014-09-26, 03:40:04,VALID,1011.07,VALID,0,INVALID,134.861,VALID,0,VALID,23.0121,VALID,30,VALID,0,
2014-09-26, 03:41:04,VALID,1011.08,VALID,0,INVALID,134.9,VALID,0,VALID,23.0316,VALID,30,VALID,0,
2014-09-26, 03:42:04,VALID,1011.06,VALID,0,INVALID,134.869,VALID,0,VALID,23.0316,VALID,30,VALID,0,
2014-09-26, 03:43:04,VALID,1011.09,VALID,0,INVALID,134.869,VALID,0,VALID,23.0121,VALID,30,VALID,0,
2014-09-26, 03:44:04,VALID,1011.09,VALID,0,INVALID,134.938,VALID,0,VALID,23.0333,VALID,30,VALID,0,
2014-09-26, 03:45:04,VALID,1011.07,VALID,0,INVALID,134.945,VALID,0.112112,VALID,23.0121,VALID,30,VALID,0,
2014-09-26, 03:46:04,VALID,1011.07,VALID,0,INVALID,134.983,VALID,0,VALID,23.0121,VALID,30,VALID,0,
2014-09-26, 03:47:04,VALID,1011.06,VALID,0,INVALID,135.044,VALID,0,VALID,23.0333,VALID,30,VALID,0,
2014-09-26, 03:48:04,VALID,1011.1,VALID,0,INVALID,135.067,VALID,0,VALID,22.9926,VALID,30,VALID,0,
2014-09-26, 03:49:04,VALID,1011.09,VALID,0,INVALID,135.075,VALID,0,VALID,23.0121,VALID,30,VALID,0,
2014-09-26, 03:50:04,VALID,1011.12,VALID,0,INVALID,135.121,VALID,0,VALID,23.0121,VALID,30,VALID,0,
2014-09-26, 03:51:04,VALID,1011.1,VALID,0,INVALID,135.128,VALID,0,VALID,23.0121,VALID,30,VALID,0,
2014-09-26, 03:52:04,VALID,1011.11,VALID,0,INVALID,135.182,VALID,0,VALID,22.9926,VALID,30,VALID,0,
2014-09-26, 03:53:04,VALID,1011.13,VALID,0,INVALID,135.227,VALID,0,VALID,22.9926,VALID,30,VALID,0,
2014-09-26, 03:54:04,VALID,1011.12,VALID,0,INVALID,135.281,VALID,0,VALID,22.9926,VALID,30,VALID,0,
2014-09-26, 03:55:04,VALID,1011.13,VALID,0,INVALID,135.266,VALID,0,VALID,22.9519,VALID,30,VALID,0,
2014-09-26, 03:56:04,VALID,1011.11,VALID,0,INVALID,135.327,VALID,0.112112,VALID,22.9731,VALID,30,VALID,0,
2014-09-26, 03:57:04,VALID,1011.09,VALID,0,INVALID,135.365,VALID,0,VALID,22.9731,VALID,30,VALID,0,